Terug naar catalogus

STARLINK-4642

ActiefCommunicatieVLEO
NORAD 53720·PAYLOAD·🇺🇸 United States

Gelanceerd Sep 5, 2022 vanaf Cape Canaveral Space Force Station

Loading…

Volgende Passages (komende 24 uur)

TLE

VersSource: CelesTrak SupGP

Epoch: Sep 14, 2026, 22:05 UTC

1 53720C 22107W   26257.92062500  .00001084  00000+0  32039-4 0  2575
2 53720  53.1574 109.6798 0001372  82.4544 331.7897 15.34386483    18

Volg STARLINK-4642 in realtime met AllMySat

Download on the App Store